Location: *
(46.1333°S, 161.2167°W)
Time: 04:15:25
(UTC+00:00)

Cosmos 883 Rocket - Pass Details

Date: 15 July 2020
Orbit: 951 x 994 km, 83.0° (Epoch: 10 August)

Event Time Altitude Azimuth Distance (km) Brightness Sun altitude
Rises 17:08:57 0° 190° (S) 3,713 7.3 -12.2°
Reaches altitude 10° 17:11:30 10° 191° (S) 2,753 6.6 -11.8°
Maximum altitude 17:17:48 77° 276° (W) 1,004 4.5 -10.8°
Drops below altitude 10° 17:23:57 10° 360° (N) 2,693 7.1 -9.8°
Sets 17:26:25 0° 1° (N) 3,627 7.8 -9.4°
